EW7614 Weather Reports


Display with metric or nautical units.
time (UTC)temp
F
wind
direction
speed
MPH
gust
MPH
rain 1hr
in
rain 24hr
in
rain mn
in
humidity
%
barometer
mb
20260503204537 56 98 0.0 1.0 0.00 0.00 0.00 54 1010.6
20260503203041 57 290 0.0 0.0 0.00 0.00 0.00 51 1010.5
20260503201538 57 109 0.0 0.0 0.00 0.00 0.00 50 1010.4
20260503200035 57 247 0.0 1.0 0.00 0.00 0.00 53 1010.3
20260503194535 56 239 0.0 4.0 0.00 0.00 0.00 52 1010.3
20260503193040 58 321 0.0 2.0 0.00 0.00 0.00 50 1010.3
20260503191538 60 209 0.0 2.0 0.00 0.00 0.00 46 1010.2
20260503190034 61 204 0.0 1.0 0.00 0.00 0.00 45 1010.0
20260503184534 62 137 0.0 1.0 0.00 0.00 0.00 41 1009.7
20260503183033 63 134 0.0 1.0 0.00 0.00 0.00 42 1009.6
20260503181532 66 148 0.0 2.0 0.00 0.00 0.00 36 1009.3
20260503180044 68 264 0.0 3.0 0.00 0.00 0.00 33 1009.1
20260503174534 71 273 1.0 3.0 0.00 0.00 0.00 27 1009.0
20260503173030 72 161 0.0 4.0 0.00 0.00 0.00 29 1008.8
20260503171532 73 150 0.0 6.0 0.00 0.00 0.00 28 1008.8
20260503100133 70 217 0.0 3.0 0.00 0.00 0.00 43 1012.3
20260503081523 62 198 0.0 1.0 0.00 0.00 0.00 49 1014.1
20260503080108 60 229 0.0 1.0 0.00 0.00 0.00 51 1014.4
20260503071524 56 291 0.0 0.0 0.00 0.00 0.00 62 1015.0
20260503070114 53 292 0.0 0.0 0.00 0.00 0.00 67 1015.2
20260503060117 45 233 0.0 0.0 0.00 0.00 0.00 83 1015.7
20260503054538 43 233 0.0 0.0 0.00 0.00 0.00 86 1015.7
20260503053125 41 231 0.0 0.0 0.00 0.00 0.00 88 1015.8
20260503051549 40 231 0.0 0.0 0.00 0.00 0.00 87 1016.0
20260503050003 39 231 0.0 0.0 0.00 0.00 0.00 88 1016.2
20260503044553 38 231 0.0 0.0 0.00 0.00 0.00 88 1016.1
20260503043031 37 230 0.0 0.0 0.00 0.00 0.00 91 1016.2
20260503041609 37 230 0.0 0.0 0.00 0.00 0.00 90 1016.2
20260503040052 37 230 0.0 0.0 0.00 0.00 0.00 89 1016.2
20260503034625 37 230 0.0 0.0 0.00 0.00 0.00 90 1016.2
20260503033039 37 231 0.0 0.0 0.00 0.00 0.00 91 1016.1
20260503031632 37 231 0.0 0.0 0.00 0.00 0.00 89 1016.2
20260503030052 37 231 0.0 0.0 0.00 0.00 0.00 89 1016.1
20260503024519 37 231 0.0 0.0 0.00 0.00 0.00 90 1016.1
20260503023057 38 231 0.0 0.0 0.00 0.00 0.00 89 1016.1
20260503021522 38 231 0.0 0.0 0.00 0.00 0.00 87 1016.2
20260503014520 39 215 0.0 0.0 0.00 0.00 0.00 87 1016.2
20260503013059 40 215 0.0 0.0 0.00 0.00 0.00 84 1016.2
20260503011510 40 215 0.0 0.0 0.00 0.00 0.00 84 1016.2
20260503010104 41 215 0.0 0.0 0.00 0.00 0.00 83 1016.3
20260503004521 41 215 0.0 0.0 0.00 0.00 0.00 83 1016.3
20260503003113 42 215 0.0 0.0 0.00 0.00 0.00 81 1016.4
20260503001521 42 215 0.0 0.0 0.00 0.00 0.00 81 1016.5
20260503000113 42 217 0.0 0.0 0.00 0.00 0.00 80 1016.5
20260502234540 42 217 0.0 0.0 0.00 0.00 0.00 81 1016.6
20260502233132 43 254 0.0 0.0 0.00 0.00 0.00 76 1016.8
20260502231548 44 254 0.0 0.0 0.00 0.00 0.00 78 1016.8
20260502230022 44 254 0.0 0.0 0.00 0.00 0.00 75 1016.9
20260502224613 45 254 0.0 0.0 0.00 0.00 0.00 72 1016.8
20260502223028 46 255 0.0 0.0 0.00 0.00 0.00 70 1016.8
20260502221625 46 204 0.0 0.0 0.00 0.00 0.00 72 1016.9
20260502220046 47 204 0.0 0.0 0.00 0.00 0.00 68 1016.9
20260502214530 48 204 0.0 0.0 0.00 0.00 0.00 69 1016.9
20260502213134 48 203 0.0 0.0 0.00 0.00 0.00 66 1016.8
20260502211543 50 277 0.0 0.0 0.00 0.00 0.00 64 1016.9
20260502210134 50 277 0.0 0.0 0.00 0.00 0.00 64 1016.9